FIN255 ULLI-EFHK

Flight info

Callsign FIN255
Flight time N/A
Altitude 26000
Route ULLI/28R N0120F260 UTET1A UTETA M60 ATLUM T561 LEDUN ROPAM
Aircraft B738/M-SDE2E3FGHIRWXY/LB1D1

Departure

Time N/A
Airport Pulkovo Airport (ULLI)

Arrival

Time 2026-04-23 18:25
Airport Helsinki Vantaa Airport (EFHK)
Time Latitude Longitude Altitude Speed Heading
2026-04-23 18:25 60.31483 24.94996 8 ft 2 kts 197°
2026-04-23 18:25 60.31464 24.94993 8 ft 6 kts 176°
2026-04-23 18:25 60.31426 24.95028 8 ft 11 kts 139°
2026-04-23 18:25 60.31406 24.95070 8 ft 0 kts 134°
2026-04-23 18:27 60.31405 24.95072 8 ft 1 kts 135°
2026-04-23 18:27 60.31378 24.95113 8 ft 9 kts 149°
2026-04-23 18:27 60.31337 24.95213 8 ft 14 kts 114°
2026-04-23 18:27 60.31292 24.95309 8 ft 14 kts 139°
2026-04-23 18:28 60.31238 24.95400 8 ft 19 kts 141°
2026-04-23 18:28 60.31200 24.95462 8 ft 0 kts 141°
2026-04-23 18:29 60.31198 24.95464 8 ft 1 kts 141°
2026-04-23 18:29 60.31177 24.95501 8 ft 9 kts 135°
2026-04-23 18:29 60.31192 24.95658 8 ft 21 kts 48°
2026-04-23 18:29 60.31290 24.95874 8 ft 23 kts 47°
2026-04-23 18:30 60.31360 24.96080 8 ft 15 kts 96°
2026-04-23 18:30 60.31305 24.96217 8 ft 11 kts 138°
2026-04-23 18:30 60.31263 24.96293 8 ft 6 kts 129°
2026-04-23 18:30 60.31262 24.96354 8 ft 4 kts 70°
2026-04-23 18:31 60.31272 24.96389 8 ft 4 kts 55°
2026-04-23 18:31 60.31294 24.96440 8 ft 6 kts 48°
2026-04-23 18:31 60.31299 24.96452 8 ft 0 kts 48°